When you browse on this site, cookies collect data to enhance your experience and personalize the content and advertising you see.
Visit our Privacy Policy to learn more. By continuing to use the site, you agree to this use of cookies and data.
  • Em Portugal
  • Lista de países
  • Para 7 dias
  • Temperatura da água
  • Mapas de satélite
  • Mapa do tempo
  • Widgets de tempo
  • user-avatar
    Iniciar Sessão

    Previsão horária em Shkoder

    Hoje, 24 Março, Domingo

    Tempo Temperatura Precipitação Vento Pressão Humidade
    00:00 +12°C° 0 mm 3 m/s 743 mmHg 65%
    01:00 +11°C° 0 mm 3 m/s 743 mmHg 66%
    02:00 +11°C° 0 mm 3 m/s 743 mmHg 65%
    03:00 +10°C° 0 mm 3 m/s 743 mmHg 63%
    04:00 +10°C° 0 mm 3 m/s 743 mmHg 61%
    05:00 +10°C° 0 mm 3 m/s 743 mmHg 59%
    06:00 +11°C° 0 mm 3 m/s 743 mmHg 58%
    07:00 +11°C° 0 mm 3 m/s 743 mmHg 56%
    08:00 +13°C° 0 mm 3 m/s 743 mmHg 48%
    09:00 +16°C° 0 mm 3 m/s 743 mmHg 41%
    10:00 +19°C° 0 mm 2 m/s 743 mmHg 34%
    11:00 +20°C° 0 mm 2 m/s 743 mmHg 33%
    12:00 +20°C° 0 mm 2 m/s 743 mmHg 31%
    13:00 +22°C° 0 mm 1 m/s 742 mmHg 30%
    14:00 +22°C° 0 mm 1 m/s 742 mmHg 31%
    15:00 +21°C° 0 mm 2 m/s 742 mmHg 33%
    16:00 +20°C° 0 mm 2 m/s 741 mmHg 35%
    17:00 +19°C° 0 mm 2 m/s 741 mmHg 41%
    18:00 +18°C° 0 mm 1 m/s 741 mmHg 47%
    19:00 +15°C° 0 mm 1 m/s 741 mmHg 53%
    20:00 +15°C° 0 mm 1 m/s 741 mmHg 53%
    21:00 +14°C° 0 mm 1 m/s 741 mmHg 53%
    22:00 +14°C° 0 mm 1 m/s 741 mmHg 53%
    23:00 +13°C° 0 mm 1 m/s 741 mmHg 54%

    Amanhã, 25 Março, Segunda-feira

    Tempo Temperatura Precipitação Vento Pressão Humidade
    00:00 +13°C° 0 mm 1 m/s 741 mmHg 54%
    01:00 +13°C° 0 mm 1 m/s 741 mmHg 55%
    02:00 +12°C° 0 mm 1 m/s 741 mmHg 57%
    03:00 +12°C° 0 mm 1 m/s 740 mmHg 59%
    04:00 +11°C° 0 mm 1 m/s 740 mmHg 61%
    05:00 +12°C° 0 mm 1 m/s 740 mmHg 61%
    06:00 +12°C° 0 mm 1 m/s 739 mmHg 61%
    07:00 +13°C° 0 mm 1 m/s 739 mmHg 61%
    08:00 +14°C° 0 mm 1 m/s 739 mmHg 57%
    09:00 +16°C° 0 mm 1 m/s 739 mmHg 52%
    10:00 +17°C° 0 mm 2 m/s 738 mmHg 48%
    11:00 +18°C° 0 mm 2 m/s 738 mmHg 47%
    12:00 +18°C° 0 mm 2 m/s 737 mmHg 47%
    13:00 +19°C° 0 mm 3 m/s 737 mmHg 46%
    14:00 +18°C° 0 mm 3 m/s 736 mmHg 48%
    15:00 +18°C° 0 mm 3 m/s 736 mmHg 50%
    16:00 +17°C° 0 mm 2 m/s 735 mmHg 51%
    17:00 +16°C° 0 mm 2 m/s 735 mmHg 58%
    18:00 +14°C° 0 mm 1 m/s 735 mmHg 66%
    19:00 +11°C° 0 mm 0 m/s 735 mmHg 73%
    20:00 +12°C° 0 mm 1 m/s 735 mmHg 73%
    21:00 +12°C° 0 mm 1 m/s 735 mmHg 73%
    22:00 +11°C° 0 mm 1 m/s 736 mmHg 74%
    23:00 +11°C° 0 mm 1 m/s 736 mmHg 72%

    Depois de amanhã, 26 Março, Terça-feira

    Tempo Temperatura Precipitação Vento Pressão Humidade
    00:00 +11°C° 0 mm 1 m/s 736 mmHg 71%
    01:00 +11°C° 0 mm 1 m/s 736 mmHg 69%
    02:00 +11°C° 0 mm 1 m/s 736 mmHg 68%
    03:00 +10°C° 0 mm 2 m/s 736 mmHg 66%
    04:00 +10°C° 0 mm 2 m/s 736 mmHg 65%
    05:00 +10°C° 0 mm 2 m/s 737 mmHg 66%
    06:00 +10°C° 0 mm 3 m/s 737 mmHg 67%
    07:00 +11°C° 0 mm 3 m/s 738 mmHg 68%
    08:00 +12°C° 0 mm 3 m/s 738 mmHg 63%
    09:00 +13°C° 0 mm 4 m/s 738 mmHg 58%
    10:00 +14°C° 0 mm 4 m/s 739 mmHg 53%
    11:00 +14°C° 0 mm 4 m/s 739 mmHg 51%
    12:00 +15°C° 0 mm 5 m/s 739 mmHg 49%
    13:00 +15°C° 0 mm 5 m/s 739 mmHg 47%
    14:00 +15°C° 0 mm 5 m/s 739 mmHg 47%
    15:00 +15°C° 0 mm 5 m/s 739 mmHg 47%
    16:00 +14°C° 0 mm 5 m/s 739 mmHg 47%
    17:00 +13°C° 0 mm 5 m/s 740 mmHg 50%
    18:00 +12°C° 0 mm 5 m/s 740 mmHg 53%
    19:00 +9°C° 0 mm 5 m/s 741 mmHg 57%
    20:00 +9°C° 0 mm 5 m/s 741 mmHg 58%
    21:00 +8°C° 0 mm 5 m/s 742 mmHg 58%
    22:00 +8°C° 0 mm 5 m/s 742 mmHg 59%
    23:00 +7°C° 0 mm 5 m/s 742 mmHg 59%

    27 Março, Quarta-feira

    Tempo Temperatura Precipitação Vento Pressão Humidade
    00:00 +7°C° 0 mm 5 m/s 743 mmHg 58%
    01:00 +7°C° 0 mm 5 m/s 743 mmHg 57%
    02:00 +7°C° 0 mm 5 m/s 743 mmHg 56%
    03:00 +6°C° 0 mm 5 m/s 743 mmHg 55%
    04:00 +6°C° 0 mm 4 m/s 743 mmHg 55%
    05:00 +7°C° 0 mm 4 m/s 743 mmHg 54%
    06:00 +7°C° 0 mm 4 m/s 743 mmHg 54%
    07:00 +7°C° 0 mm 4 m/s 743 mmHg 54%
    08:00 +9°C° 0 mm 5 m/s 743 mmHg 50%
    09:00 +10°C° 0 mm 5 m/s 743 mmHg 46%
    10:00 +13°C° 0 mm 5 m/s 743 mmHg 41%
    11:00 +14°C° 0 mm 5 m/s 743 mmHg 40%
    12:00 +14°C° 0 mm 4 m/s 743 mmHg 39%
    13:00 +15°C° 0 mm 4 m/s 742 mmHg 38%
    14:00 +15°C° 0 mm 4 m/s 742 mmHg 39%
    15:00 +15°C° 0 mm 4 m/s 742 mmHg 41%
    16:00 +15°C° 0 mm 4 m/s 742 mmHg 42%
    17:00 +13°C° 0 mm 4 m/s 742 mmHg 47%
    18:00 +12°C° 0 mm 4 m/s 743 mmHg 51%
    19:00 +11°C° 0 mm 4 m/s 743 mmHg 56%
    20:00 +10°C° 0 mm 4 m/s 743 mmHg 59%
    21:00 +10°C° 0 mm 4 m/s 743 mmHg 61%
    22:00 +8°C° 0 mm 4 m/s 743 mmHg 64%
    23:00 +8°C° 0 mm 4 m/s 743 mmHg 65%

    28 Março, Quinta-feira

    Tempo Temperatura Precipitação Vento Pressão Humidade
    00:00 +8°C° 0 mm 4 m/s 743 mmHg 66%
    01:00 +8°C° 0 mm 4 m/s 743 mmHg 67%
    02:00 +8°C° 0 mm 4 m/s 743 mmHg 68%
    03:00 +8°C° 0 mm 4 m/s 743 mmHg 69%
    04:00 +7°C° 0 mm 4 m/s 743 mmHg 70%
    05:00 +8°C° 0 mm 4 m/s 743 mmHg 69%
    06:00 +8°C° 0 mm 4 m/s 743 mmHg 69%
    07:00 +8°C° 0 mm 4 m/s 743 mmHg 68%
    08:00 +11°C° 0 mm 4 m/s 744 mmHg 64%
    09:00 +12°C° 0 mm 4 m/s 744 mmHg 59%
    10:00 +13°C° 0 mm 4 m/s 744 mmHg 55%
    11:00 +14°C° 0 mm 4 m/s 744 mmHg 52%
    12:00 +14°C° 0 mm 5 m/s 744 mmHg 50%
    13:00 +15°C° 0 mm 5 m/s 743 mmHg 47%
    14:00 +15°C° 0 mm 5 m/s 743 mmHg 47%
    15:00 +14°C° 0 mm 5 m/s 743 mmHg 47%
    16:00 +14°C° 0 mm 5 m/s 743 mmHg 47%
    17:00 +13°C° 0 mm 4 m/s 744 mmHg 50%
    18:00 +12°C° 0 mm 4 m/s 744 mmHg 53%
    19:00 +10°C° 0 mm 3 m/s 744 mmHg 56%
    20:00 +10°C° 0 mm 3 m/s 745 mmHg 57%
    21:00 +8°C° 0 mm 4 m/s 745 mmHg 59%
    22:00 +8°C° 0 mm 4 m/s 746 mmHg 61%
    23:00 +7°C° 0 mm 4 m/s 746 mmHg 61%

    29 Março, Sexta-feira

    Tempo Temperatura Precipitação Vento Pressão Humidade
    00:00 +7°C° 0 mm 4 m/s 746 mmHg 62%
    01:00 +6°C° 0 mm 4 m/s 746 mmHg 63%
    02:00 +6°C° 0 mm 4 m/s 746 mmHg 64%
    03:00 +6°C° 0 mm 4 m/s 746 mmHg 64%
    04:00 +5°C° 0 mm 4 m/s 746 mmHg 65%
    05:00 +6°C° 0 mm 4 m/s 746 mmHg 62%
    06:00 +6°C° 0 mm 4 m/s 746 mmHg 58%
    07:00 +7°C° 0 mm 4 m/s 746 mmHg 55%
    08:00 +8°C° 0 mm 4 m/s 746 mmHg 48%
    09:00 +11°C° 0 mm 4 m/s 746 mmHg 41%
    10:00 +12°C° 0 mm 5 m/s 746 mmHg 34%
    11:00 +13°C° 0 mm 5 m/s 746 mmHg 33%
    12:00 +14°C° 0 mm 5 m/s 745 mmHg 32%
    13:00 +15°C° 0 mm 5 m/s 745 mmHg 31%
    14:00 +14°C° 0 mm 4 m/s 745 mmHg 32%
    15:00 +14°C° 0 mm 4 m/s 744 mmHg 32%
    16:00 +14°C° 0 mm 4 m/s 744 mmHg 33%
    17:00 +13°C° 0 mm 3 m/s 745 mmHg 38%
    18:00 +11°C° 0 mm 3 m/s 745 mmHg 42%
    19:00 +10°C° 0 mm 3 m/s 745 mmHg 46%
    20:00 +9°C° 0 mm 3 m/s 745 mmHg 48%
    21:00 +8°C° 0 mm 3 m/s 746 mmHg 50%
    22:00 +7°C° 0 mm 4 m/s 746 mmHg 52%
    23:00 +6°C° 0 mm 4 m/s 746 mmHg 54%
    Mostrar mais